TimeEST,TemperatureF,Dew PointF,Humidity,Sea Level PressureIn,VisibilityMPH,Wind Direction,Wind SpeedMPH,Gust SpeedMPH,PrecipitationIn,Events,Conditions,WindDirDegrees,DateUTC
12:15 AM,60.8,51.8,72,30.06,10.0,South,9.2,-,N/A,,Clear,170,2011-11-28 05:15:00
12:35 AM,60.8,51.8,72,30.05,10.0,South,11.5,-,N/A,,Clear,180,2011-11-28 05:35:00
12:55 AM,60.8,51.8,72,30.05,10.0,South,10.4,-,N/A,,Clear,180,2011-11-28 05:55:00
1:15 AM,60.8,51.8,72,30.05,10.0,South,9.2,-,N/A,,Scattered Clouds,170,2011-11-28 06:15:00
1:35 AM,60.8,51.8,72,30.05,10.0,South,8.1,-,N/A,,Clear,180,2011-11-28 06:35:00
1:55 AM,60.8,51.8,72,30.06,10.0,South,6.9,-,N/A,,Scattered Clouds,170,2011-11-28 06:55:00
2:15 AM,59.0,51.8,77,30.05,10.0,South,9.2,-,N/A,,Scattered Clouds,170,2011-11-28 07:15:00
2:35 AM,60.8,51.8,72,30.04,10.0,SSE,8.1,-,N/A,,Clear,160,2011-11-28 07:35:00
2:55 AM,60.8,51.8,72,30.04,10.0,South,5.8,-,N/A,,Scattered Clouds,170,2011-11-28 07:55:00
3:15 AM,60.8,51.8,72,30.03,10.0,South,4.6,-,N/A,,Scattered Clouds,180,2011-11-28 08:15:00
3:35 AM,60.8,51.8,72,30.04,10.0,SSW,4.6,-,N/A,,Overcast,200,2011-11-28 08:35:00
3:55 AM,60.8,51.8,72,30.03,10.0,South,3.5,-,N/A,,Overcast,190,2011-11-28 08:55:00
4:15 AM,60.8,51.8,72,30.03,10.0,South,4.6,-,N/A,,Overcast,180,2011-11-28 09:15:00
4:35 AM,60.8,51.8,72,30.03,10.0,SSE,4.6,-,N/A,,Mostly Cloudy,160,2011-11-28 09:35:00
4:55 AM,60.8,51.8,72,30.03,10.0,South,4.6,-,N/A,,Mostly Cloudy,170,2011-11-28 09:55:00
5:15 AM,59.0,51.8,77,30.03,10.0,South,5.8,-,N/A,,Scattered Clouds,170,2011-11-28 10:15:00
5:35 AM,60.8,51.8,72,30.04,10.0,SSW,3.5,-,N/A,,Clear,200,2011-11-28 10:35:00
5:55 AM,60.8,51.8,72,30.05,10.0,SSW,3.5,-,N/A,,Clear,210,2011-11-28 10:55:00
6:15 AM,60.8,50.0,68,30.06,10.0,SSW,5.8,-,N/A,,Clear,200,2011-11-28 11:15:00
6:35 AM,60.8,51.8,72,30.06,10.0,SSW,4.6,-,N/A,,Mostly Cloudy,200,2011-11-28 11:35:00
6:55 AM,60.8,51.8,72,30.07,10.0,Calm,Calm,-,N/A,,Overcast,0,2011-11-28 11:55:00
7:15 AM,60.8,51.8,72,30.07,10.0,Calm,Calm,-,N/A,,Overcast,0,2011-11-28 12:15:00
7:35 AM,60.8,51.8,72,30.07,10.0,Calm,Calm,-,N/A,,Overcast,0,2011-11-28 12:35:00
7:55 AM,59.0,51.8,77,30.08,10.0,Calm,Calm,-,N/A,,Overcast,0,2011-11-28 12:55:00
8:15 AM,60.8,51.8,72,30.08,10.0,Calm,Calm,-,N/A,,Overcast,0,2011-11-28 13:15:00
8:35 AM,62.6,51.8,68,30.08,10.0,Calm,Calm,-,N/A,,Mostly Cloudy,0,2011-11-28 13:35:00
8:55 AM,62.6,51.8,68,30.07,10.0,Calm,Calm,-,N/A,,Scattered Clouds,0,2011-11-28 13:55:00
9:15 AM,64.4,51.8,64,30.08,10.0,South,3.5,-,N/A,,Mostly Cloudy,170,2011-11-28 14:15:00
9:35 AM,64.4,51.8,64,30.07,10.0,SSE,3.5,-,N/A,,Overcast,160,2011-11-28 14:35:00
9:55 AM,64.4,51.8,64,30.08,10.0,SSE,4.6,-,N/A,,Overcast,160,2011-11-28 14:55:00
10:15 AM,66.2,51.8,60,30.08,10.0,South,4.6,-,N/A,,Overcast,180,2011-11-28 15:15:00
10:35 AM,66.2,51.8,60,30.07,10.0,South,9.2,-,N/A,,Overcast,170,2011-11-28 15:35:00
10:55 AM,68.0,51.8,56,30.06,10.0,South,4.6,-,N/A,,Overcast,170,2011-11-28 15:55:00
11:35 AM,71.6,50.0,46,30.04,10.0,South,8.1,-,N/A,,Scattered Clouds,170,2011-11-28 16:35:00
11:55 AM,71.6,50.0,46,30.03,10.0,SSE,9.2,-,N/A,,Scattered Clouds,150,2011-11-28 16:55:00
12:15 PM,73.4,48.2,41,30.01,10.0,SSE,12.7,18.4,N/A,,Clear,160,2011-11-28 17:15:00
12:35 PM,73.4,50.0,44,30.01,10.0,SSE,10.4,-,N/A,,Scattered Clouds,150,2011-11-28 17:35:00
12:55 PM,71.6,50.0,46,30.01,10.0,ESE,9.2,16.1,N/A,,Scattered Clouds,120,2011-11-28 17:55:00
1:15 PM,73.4,51.8,47,30.00,10.0,SE,11.5,20.7,N/A,,Overcast,130,2011-11-28 18:15:00
1:35 PM,71.6,51.8,50,30.00,10.0,SE,10.4,16.1,N/A,,Overcast,140,2011-11-28 18:35:00
2:15 PM,71.6,51.8,50,29.99,10.0,SE,6.9,-,N/A,,Overcast,130,2011-11-28 19:15:00
2:35 PM,71.6,53.6,53,29.98,10.0,SSE,8.1,-,N/A,,Overcast,160,2011-11-28 19:35:00
2:55 PM,71.6,53.6,53,29.98,10.0,SE,4.6,-,N/A,,Overcast,130,2011-11-28 19:55:00
3:15 PM,71.6,53.6,53,29.98,10.0,SE,3.5,-,N/A,,Overcast,130,2011-11-28 20:15:00
3:35 PM,71.6,53.6,53,29.97,10.0,ESE,4.6,-,N/A,,Overcast,110,2011-11-28 20:35:00
3:55 PM,71.6,53.6,53,29.97,10.0,ESE,4.6,-,N/A,,Overcast,120,2011-11-28 20:55:00
4:15 PM,71.6,53.6,53,29.97,10.0,SE,5.8,-,N/A,,Overcast,130,2011-11-28 21:15:00
4:35 PM,69.8,53.6,56,29.97,10.0,SE,3.5,-,N/A,,Overcast,130,2011-11-28 21:35:00
4:55 PM,69.8,53.6,56,29.97,10.0,East,3.5,-,N/A,,Overcast,90,2011-11-28 21:55:00
5:15 PM,69.8,53.6,56,29.96,10.0,ESE,3.5,-,N/A,,Overcast,110,2011-11-28 22:15:00
5:35 PM,69.8,55.4,60,29.96,10.0,ESE,4.6,-,N/A,,Overcast,110,2011-11-28 22:35:00
5:55 PM,69.8,55.4,60,29.96,10.0,East,4.6,-,N/A,,Overcast,90,2011-11-28 22:55:00
6:35 PM,68.0,57.2,68,29.95,10.0,East,3.5,-,N/A,,Overcast,100,2011-11-28 23:35:00
6:55 PM,68.0,57.2,68,29.94,10.0,Calm,Calm,-,N/A,,Overcast,0,2011-11-28 23:55:00
7:15 PM,66.2,57.2,73,29.95,10.0,Calm,Calm,-,N/A,Rain,Light Rain,0,2011-11-29 00:15:00
7:35 PM,64.4,59.0,83,29.94,10.0,Calm,Calm,-,N/A,,Overcast,0,2011-11-29 00:35:00
7:55 PM,64.4,59.0,83,29.94,10.0,NE,3.5,-,N/A,,Overcast,40,2011-11-29 00:55:00
8:15 PM,66.2,59.0,78,29.93,10.0,Calm,Calm,-,N/A,,Overcast,0,2011-11-29 01:15:00
8:35 PM,66.2,57.2,73,29.92,10.0,ESE,4.6,-,N/A,,Overcast,110,2011-11-29 01:35:00
9:15 PM,66.2,57.2,73,29.91,10.0,ESE,5.8,-,N/A,,Overcast,110,2011-11-29 02:15:00
9:35 PM,66.2,55.4,68,29.91,10.0,ESE,6.9,-,N/A,,Overcast,120,2011-11-29 02:35:00
9:55 PM,66.2,55.4,68,29.90,10.0,ESE,6.9,-,N/A,,Mostly Cloudy,110,2011-11-29 02:55:00
10:15 PM,66.2,55.4,68,29.90,10.0,ESE,6.9,-,N/A,,Mostly Cloudy,120,2011-11-29 03:15:00
10:35 PM,66.2,55.4,68,29.90,10.0,ESE,5.8,-,N/A,,Mostly Cloudy,120,2011-11-29 03:35:00
10:55 PM,66.2,55.4,68,29.89,10.0,SE,6.9,-,N/A,,Overcast,140,2011-11-29 03:55:00
11:15 PM,66.2,55.4,68,29.89,10.0,SE,5.8,-,N/A,,Overcast,140,2011-11-29 04:15:00
11:35 PM,66.2,55.4,68,29.88,10.0,SE,6.9,-,N/A,,Mostly Cloudy,130,2011-11-29 04:35:00